Temperature
16 16 16 16 16 16 16 16 16 16 16 16 15 15 15 15 15 15 14 15 15 15 15 15 15 15 15 14 14 14 14 14 14 14 14 13 13 13
16 16 16 16 16 16 16 16 15 15 15 15 15 15 14 14 14 14 14 14 14 14 14 14 14 14 14 14 14 14 13 13 13 13 13 13 13 13
16 16 16 16 16 16 15 15 15 15 15 14 14 14 14 14 13 13 13 13 13 13 13 13 13 13 13 13 13 13 13 13 13 13 12 12 12 12
15 15 15 15 15 15 15 15 15 15 14 14 14 13 13 13 13 13 13 13 12 13 13 12 12 12 12 12 12 12 12 12 12 12 12 12 12 12
15 15 15 15 15 15 15 14 14 14 14 14 13 13 12 12 12 12 12 12 12 12 12 12 12 12 12 11 11 11 11 11 11 11 11 11 11 11
15 14 14 14 14 14 14 14 14 14 13 13 13 12 12 12 12 12 12 12 11 11 11 11 11 11 11 11 11 11 11 11 11 11 10 10 10 10
14 14 14 14 14 14 14 14 14 13 13 13 12 12 12 11 11 11 11 11 11 11 11 10 10 10 10 10 10 10 10 10 10 10 10 10 10 10
13 13 13 13 13 13 13 13 13 13 12 12 12 12 11 11 11 11 11 11 10 10 10 10 10 10 10 9 9 9 9 9 9 9 9 9 9 9
13 13 13 13 13 13 13 12 12 12 12 11 11 11 11 11 11 11 10 10 10 10 10 10 9 9 9 9 9 9 9 8 8 8 8 8 8 8
13 12 12 12 12 12 12 12 12 12 11 11 11 11 11 10 10 10 10 10 10 9 9 9 9 9 9 8 8 8 8 8 8 8 8 8 7 7
12 12 12 12 12 12 12 11 11 11 11 11 11 10 10 10 10 10 10 10 10 10 9 9 9 9 8 8 8 8 8 7 7 7 7 7 7 7
12 12 12 12 12 11 11 11 11 10 10 10 10 10 10 10 10 10 10 10 10 10 9 9 9 9 9 8 8 7 7 7 7 7 7 7 7 6
11 11 11 11 11 11 11 11 10 10 10 10 10 10 9 9 9 9 9 9 9 9 9 9 9 9 9 8 8 7 7 7 7 6 6 6 6 6
11 10 10 10 10 10 10 10 10 10 10 10 10 9 9 9 9 8 8 8 8 8 8 8 8 8 9 9 8 8 7 7 6 6 6 6 6 6
10 10 10 10 10 10 10 10 9 9 9 10 9 9 9 8 8 8 8 8 8 8 8 8 8 8 8 8 8 8 7 7 7 6 6 6 6 6
10 10 10 10 9 9 9 9 9 9 9 9 9 9 9 8 8 8 9 8 8 8 8 7 7 7 8 7 8 8 7 7 6 6 6 6 6 5
10 9 9 9 9 9 9 9 9 9 9 9 9 9 9 8 8 8 8 8 8 8 8 7 7 7 7 7 7 7 7 7 6 6 6 6 6 5
10 10 9 9 9 9 9 9 8 8 8 8 8 8 8 8 8 8 8 8 8 8 8 8 7 7 7 7 7 7 7 7 6 6 6 6 6 6
10 10 9 9 9 9 9 9 8 8 8 8 8 8 8 8 8 8 8 8 8 8 8 7 7 7 8 8 7 6 6 6 6 6 6 6 6 6
10 9 9 9 9 9 8 8 8 8 8 8 8 8 8 8 8 8 8 7 8 8 8 7 7 7 7 7 7 6 6 6 6 6 6 6 6 5
9 9 9 9 8 8 8 8 8 8 7 7 7 7 7 7 7 8 8 7 7 7 7 7 6 6 6 6 7 7 6 6 6 5 5 6 6 6
9 9 9 8 8 8 8 8 8 7 7 7 7 7 7 7 7 7 7 7 7 7 7 7 6 6 7 7 7 7 6 6 6 6 5 5 5 5
8 8 8 8 8 8 8 7 7 7 7 7 7 7 7 7 7 7 7 7 7 7 7 7 7 7 7 7 7 7 6 6 6 6 6 5 5 5
Wind_Speed
2 3 3 3 3 3 3 4 4 4 2 1 0 2 2 3 5 4 5 9 9 8 6 6 5 4 3 2 1 1 0 1 2 2 2 2 3 3
1 1 2 2 2 2 3 3 3 3 2 1 1 1 3 3 6 6 6 9 10 9 8 8 7 6 5 4 3 3 2 2 2 2 1 1 1 1
1 1 1 2 1 1 1 1 1 1 2 1 1 3 4 4 5 5 6 6 9 11 10 10 9 8 8 7 6 5 5 4 4 4 4 4 4 3
3 3 3 2 2 2 1 1 0 1 1 1 1 2 4 3 4 3 5 7 9 13 13 12 12 11 10 9 8 7 7 8 8 8 7 7 7 6
4 4 4 4 3 3 2 2 1 1 1 2 2 3 3 3 4 5 6 5 7 9 11 12 12 12 12 12 11 11 10 10 10 10 9 8 8 8
6 6 6 6 5 4 3 4 3 3 3 3 4 3 3 3 2 3 4 4 5 6 8 8 10 11 13 13 13 13 12 12 12 12 12 11 11 11
8 8 9 10 11 9 6 5 4 3 4 4 4 4 3 2 2 2 4 4 4 4 3 4 5 6 8 11 12 12 12 12 11 11 11 10 11 11
8 8 8 10 11 12 13 12 10 6 5 4 4 4 4 3 3 2 3 2 2 3 2 4 4 5 6 8 10 10 10 10 10 9 9 9 9 9
8 7 7 8 8 8 9 9 11 11 8 5 6 5 4 3 2 3 2 3 3 3 2 3 3 4 5 9 10 9 9 8 8 7 7 7 7 7
8 8 8 8 8 7 8 10 10 10 9 7 7 6 6 4 3 3 3 3 3 3 2 2 3 3 4 6 8 7 7 7 6 6 5 5 4 4
8 8 8 8 8 7 8 9 9 9 12 13 11 9 9 7 4 2 2 2 2 3 2 1 2 2 2 3 6 6 6 5 5 5 4 4 3 0
7 9 11 9 9 8 7 8 8 7 7 8 8 7 7 7 5 4 3 2 2 2 3 2 1 1 1 2 3 3 3 4 4 4 3 4 4 3
6 7 7 9 10 9 7 7 6 3 5 6 6 6 6 5 6 7 7 5 4 4 4 3 2 2 2 1 1 1 2 1 1 1 2 2 2 4
6 7 7 8 9 9 8 6 3 2 4 5 5 5 5 5 5 7 7 8 7 6 5 5 3 4 3 3 2 1 1 1 2 2 1 2 2 1
7 8 7 5 5 7 7 3 2 3 4 4 5 5 5 5 4 4 4 4 4 6 6 6 5 4 4 3 3 3 2 2 2 2 2 2 2 1
6 7 6 4 4 5 4 3 4 5 4 4 4 4 3 3 3 3 3 2 2 3 4 5 5 5 4 4 3 3 3 3 3 3 3 2 2 2
4 4 4 4 4 4 4 4 3 3 3 3 3 3 3 3 3 3 3 3 3 3 2 2 2 2 2 3 3 3 3 3 3 3 4 3 2 1
2 4 3 3 3 3 3 3 3 3 3 3 3 3 3 3 3 3 3 3 3 3 4 4 4 3 2 1 3 4 4 4 4 3 5 4 3 2
2 3 3 3 2 2 2 2 3 3 2 2 2 2 2 2 2 2 3 3 3 3 3 4 5 5 5 3 1 1 5 5 5 4 4 5 4 4
2 2 3 2 2 2 2 2 2 2 2 2 2 2 2 2 3 3 3 4 4 4 3 3 4 5 6 6 5 3 2 4 5 6 6 5 4 2
2 2 2 2 2 2 1 1 1 1 2 2 2 2 2 2 3 3 3 1 4 4 4 4 4 4 5 5 5 3 2 2 3 5 7 7 6 5
2 2 2 1 1 1 1 0 0 1 1 1 2 2 2 3 3 4 4 4 4 5 5 4 3 4 5 5 6 6 5 3 4 7 7 6 6 6
2 1 1 1 1 0 1 1 1 1 1 2 2 2 3 3 3 4 4 4 5 5 6 5 4 5 5 6 6 6 6 6 5 4 3 7 10 10
Wind_Direction
273 251 253 251 253 256 255 250 249 259 265 305 349 35 53 68 72 73 75 76 80 78 77 78 79 77 68 61 70 81 73 231 240 244 239 239 238 249
337 310 281 276 260 261 262 264 255 252 265 334 17 37 56 71 81 80 81 86 78 77 75 76 76 75 70 65 65 68 72 86 121 129 133 147 189 237
5 351 342 333 316 283 262 255 252 238 227 275 39 73 69 68 74 77 83 81 76 74 76 74 70 69 67 66 67 67 63 65 79 84 88 92 86 74
31 20 15 19 9 339 350 359 63 211 191 151 95 76 72 78 78 75 78 78 77 77 76 72 69 67 67 68 68 69 69 70 72 73 74 72 70 64
44 38 32 30 22 24 26 37 42 80 98 116 102 74 69 69 78 78 75 71 79 83 81 77 73 72 69 68 66 66 68 70 71 70 68 69 68 66
48 45 42 42 37 40 49 47 53 76 94 104 101 88 82 78 82 83 81 68 62 66 67 74 83 84 77 71 69 67 68 70 71 71 69 69 68 66
59 58 57 55 48 44 49 50 55 72 94 101 100 96 86 80 74 81 88 87 71 52 62 67 78 76 78 77 69 65 68 70 70 70 71 70 69 68
66 65 69 64 66 64 60 55 49 57 66 81 90 88 77 76 79 95 98 94 76 49 48 64 58 64 67 69 68 69 70 72 74 74 74 75 75 75
67 64 63 63 60 70 77 79 64 52 46 56 80 80 86 76 79 92 71 53 61 62 43 62 60 67 76 75 78 75 73 70 71 74 74 75 78 83
68 69 71 65 57 56 74 72 70 61 55 61 70 70 72 66 64 72 88 99 98 81 40 47 61 71 77 87 92 85 83 78 71 68 69 65 67 83
71 64 66 72 43 33 76 80 77 76 77 75 71 75 72 61 38 66 81 90 95 91 53 32 71 89 105 106 117 121 106 97 80 68 60 45 24 107
88 82 67 60 44 31 71 80 81 76 77 84 85 87 84 77 57 31 22 31 50 72 50 352 18 343 92 97 93 119 126 133 123 100 74 43 4 345
93 86 75 57 53 43 50 71 68 70 84 84 82 76 72 67 58 48 31 22 21 38 31 344 348 346 356 25 40 51 33 36 141 153 137 109 19 350
91 90 88 78 69 58 62 49 6 0 81 80 76 70 64 60 59 55 49 46 41 40 21 359 356 350 343 344 356 20 32 6 346 351 356 174 201 229
89 81 86 103 118 95 73 23 2 59 64 67 65 63 62 58 61 80 83 80 70 53 42 17 3 354 344 347 353 358 352 357 358 346 338 333 335 320
113 117 125 99 95 90 108 81 62 52 45 55 57 61 65 69 52 36 35 40 55 73 61 33 18 360 355 360 349 355 354 348 344 350 339 317 317 325
134 139 131 120 108 99 91 76 69 67 57 51 49 50 47 45 42 33 13 2 14 19 25 23 9 350 0 342 339 349 340 340 348 349 311 305 314 317
180 129 119 108 96 89 87 83 73 58 48 47 44 36 33 30 31 23 12 4 6 6 6 3 347 323 263 136 9 335 333 333 332 320 309 318 324 325
169 120 113 103 89 81 78 75 71 61 34 36 37 30 24 21 21 13 3 358 1 359 1 359 351 341 329 334 86 351 330 324 318 319 320 321 321 332
150 123 121 115 105 88 77 71 70 70 49 30 31 23 10 3 1 357 3 354 345 342 347 354 355 348 336 331 327 320 291 319 324 320 315 306 310 313
144 135 126 124 116 104 81 57 48 50 28 357 25 8 353 344 344 340 346 4 314 328 335 347 4 308 296 302 305 318 330 235 282 304 315 311 310 303
137 132 126 116 119 115 113 33 33 63 19 338 10 348 337 331 328 323 327 327 324 327 326 334 333 309 310 313 314 316 316 309 247 235 251 275 308 318
153 156 148 158 155 190 246 253 284 331 346 340 343 331 329 324 316 316 316 315 319 324 322 323 321 313 313 310 310 313 317 314 306 283 258 218 227 246
Height
1538 1538 1538 1539 1539 1540 1540 1540 1542 1541 1541 1541 1541 1541 1541 1540 1540 1540 1539 1538 1538 1538 1538 1537 1537 1537 1536 1536 1536 1536 1535 1536 1536 1536 1535 1536 1536 1536
1536 1536 1536 1537 1537 1537 1537 1537 1538 1539 1539 1539 1539 1539 1539 1539 1538 1537 1537 1536 1536 1535 1535 1534 1534 1534 1534 1534 1533 1533 1532 1532 1532 1532 1532 1532 1532 1532
1535 1535 1535 1534 1534 1534 1534 1534 1535 1536 1536 1537 1537 1537 1537 1536 1536 1536 1536 1535 1534 1533 1533 1532 1532 1532 1531 1531 1531 1530 1529 1529 1528 1528 1528 1528 1528 1528
1535 1534 1534 1534 1533 1533 1533 1533 1533 1533 1534 1535 1535 1536 1535 1535 1535 1535 1535 1534 1533 1532 1532 1531 1531 1530 1530 1529 1529 1528 1527 1526 1526 1526 1525 1525 1525 1524
1535 1534 1534 1533 1532 1532 1532 1532 1532 1533 1533 1533 1534 1534 1535 1535 1534 1534 1534 1533 1533 1532 1531 1531 1530 1530 1529 1528 1528 1527 1526 1525 1524 1524 1523 1523 1522 1522
1535 1535 1534 1533 1533 1532 1532 1531 1531 1532 1532 1533 1533 1534 1534 1534 1535 1535 1534 1534 1534 1533 1533 1532 1531 1530 1529 1529 1528 1527 1526 1525 1524 1523 1522 1521 1521 1520
1537 1536 1535 1534 1533 1533 1532 1532 1532 1532 1532 1532 1533 1534 1534 1535 1535 1535 1535 1535 1535 1534 1534 1533 1533 1531 1530 1529 1528 1527 1526 1525 1524 1523 1522 1521 1520 1519
1538 1537 1537 1536 1535 1534 1533 1533 1533 1533 1533 1534 1534 1535 1535 1536 1536 1536 1536 1536 1536 1536 1535 1534 1534 1533 1532 1530 1529 1528 1527 1525 1524 1523 1522 1520 1519 1518
1539 1539 1539 1538 1537 1537 1536 1535 1535 1535 1535 1535 1536 1536 1536 1536 1536 1537 1536 1537 1536 1536 1536 1535 1535 1534 1533 1531 1530 1529 1528 1526 1525 1523 1522 1520 1519 1518
1541 1541 1540 1540 1539 1539 1538 1538 1537 1537 1537 1537 1537 1537 1537 1537 1538 1538 1538 1537 1537 1537 1537 1537 1536 1535 1534 1532 1531 1530 1528 1527 1525 1523 1522 1520 1519 1517
1543 1543 1542 1542 1541 1541 1540 1540 1539 1539 1539 1539 1538 1538 1538 1538 1539 1539 1539 1539 1539 1538 1538 1537 1537 1536 1534 1533 1532 1530 1529 1527 1525 1523 1522 1520 1519 1517
1545 1545 1544 1544 1543 1543 1542 1542 1541 1542 1542 1541 1541 1541 1541 1540 1540 1540 1540 1540 1540 1539 1538 1538 1537 1536 1535 1534 1533 1531 1529 1527 1525 1523 1522 1520 1519 1518
1547 1547 1546 1546 1545 1545 1544 1544 1544 1544 1544 1544 1544 1543 1543 1542 1542 1541 1540 1541 1540 1540 1539 1538 1537 1536 1535 1534 1533 1531 1530 1528 1526 1524 1522 1521 1519 1518
1548 1548 1548 1548 1547 1547 1546 1546 1546 1546 1547 1546 1546 1545 1545 1544 1543 1542 1541 1540 1540 1540 1538 1538 1537 1536 1535 1534 1533 1531 1530 1528 1527 1525 1523 1521 1519 1518
1549 1549 1549 1549 1549 1549 1548 1548 1548 1549 1548 1548 1548 1547 1546 1545 1544 1543 1543 1542 1541 1540 1539 1537 1537 1536 1535 1534 1532 1531 1530 1528 1527 1525 1523 1522 1520 1518
1550 1550 1550 1551 1551 1550 1550 1550 1550 1549 1549 1549 1549 1548 1547 1547 1546 1545 1545 1544 1543 1541 1539 1537 1536 1535 1535 1533 1532 1531 1530 1528 1527 1525 1523 1521 1519 1518
1551 1552 1553 1553 1553 1553 1552 1551 1551 1551 1550 1550 1549 1549 1548 1547 1547 1546 1544 1544 1543 1542 1540 1538 1537 1535 1534 1533 1532 1531 1530 1528 1526 1524 1522 1521 1519 1517
1553 1554 1554 1554 1554 1553 1553 1552 1552 1551 1551 1550 1550 1549 1548 1548 1547 1546 1545 1544 1543 1542 1540 1539 1537 1536 1535 1533 1532 1531 1529 1528 1526 1523 1522 1520 1518 1517
1553 1554 1554 1554 1554 1554 1553 1553 1553 1552 1551 1551 1550 1549 1549 1548 1547 1546 1545 1544 1543 1542 1540 1539 1537 1536 1534 1533 1531 1529 1528 1527 1525 1523 1521 1519 1518 1516
1553 1553 1553 1553 1553 1553 1553 1553 1553 1552 1552 1551 1550 1550 1549 1548 1547 1546 1545 1544 1543 1542 1540 1539 1537 1535 1534 1533 1531 1529 1527 1526 1524 1522 1520 1518 1516 1514
1552 1553 1553 1553 1553 1553 1553 1553 1552 1552 1551 1551 1550 1549 1549 1548 1547 1546 1545 1543 1542 1541 1540 1538 1536 1534 1533 1532 1530 1528 1526 1524 1522 1520 1518 1516 1514 1512
1552 1552 1552 1552 1552 1552 1552 1552 1552 1551 1551 1551 1550 1549 1548 1548 1547 1546 1545 1543 1542 1541 1539 1538 1535 1534 1533 1531 1528 1526 1524 1523 1520 1518 1516 1515 1513 1511
1551 1551 1551 1551 1551 1551 1551 1551 1551 1551 1550 1550 1549 1548 1548 1547 1546 1545 1544 1543 1541 1540 1538 1536 1535 1533 1531 1529 1527 1525 1523 1521 1519 1516 1515 1512 1511 1509